Temperature
9 10 10 10 10 11 11 11 11 11 11 11 11 11 12 11 11 11 12 12 12 12 12 12 11 11 11 11 11 11 10 10 10 10 10 10 9 9 9 9 9 9 9
9 9 10 10 10 10 10 10 10 11 11 11 11 11 11 11 11 11 11 11 11 11 11 11 11 11 11 11 10 10 10 10 10 9 9 9 9 9 9 9 9 8 8
8 9 9 10 10 10 10 10 10 10 10 10 10 10 10 11 11 11 11 11 11 11 11 11 11 10 10 10 10 10 10 9 9 9 9 8 8 8 8 8 8 8 8
8 8 9 9 9 10 10 10 10 10 10 10 10 10 10 10 11 11 10 10 10 10 10 10 10 10 10 10 10 9 9 9 9 8 8 8 8 8 8 8 8 8 8
7 8 8 8 9 9 9 9 10 10 10 10 10 10 10 10 10 10 10 10 10 10 10 10 10 9 9 9 9 9 9 9 8 8 8 8 7 7 7 7 7 7 7
7 7 8 8 8 8 9 9 9 9 9 9 9 9 9 10 10 10 10 10 9 9 9 9 9 9 9 9 9 9 8 8 8 8 8 7 7 7 6 6 6 6 7
6 7 7 7 8 8 8 8 8 9 9 9 9 9 9 9 9 9 9 9 9 9 9 9 9 9 8 8 8 8 8 8 8 7 7 7 7 6 6 6 5 5 6
6 6 6 7 7 7 7 8 8 8 8 8 8 8 8 9 9 9 9 9 9 9 9 8 8 8 8 8 8 8 8 7 7 7 7 7 6 6 6 5 5 4 5
5 6 6 6 6 7 7 7 7 8 8 8 8 8 8 8 8 8 9 8 8 8 8 8 8 8 8 8 8 7 7 7 7 6 6 6 6 6 6 5 5 4 3
5 5 6 6 6 6 6 7 7 7 7 7 7 7 8 8 8 8 8 8 8 8 8 8 8 8 8 7 7 7 7 7 6 6 6 6 6 6 5 5 5 4 4
4 5 5 6 6 6 6 6 6 7 7 7 7 7 7 7 7 7 8 8 7 7 7 7 7 7 7 7 7 7 7 6 6 6 6 6 5 5 5 5 4 4 4
4 4 5 5 5 5 5 5 6 6 6 6 6 6 6 7 7 7 7 7 7 7 7 7 7 7 7 6 6 6 6 6 6 5 5 5 5 5 5 4 4 4 3
3 4 4 4 4 4 5 5 5 5 6 6 6 6 6 6 6 6 6 6 7 7 7 7 6 6 6 6 6 6 6 5 5 5 5 5 4 4 4 4 4 3 3
3 3 3 3 4 4 4 4 5 5 5 5 5 5 5 5 6 6 6 6 6 6 6 6 6 6 6 6 5 5 5 5 5 5 4 4 4 4 4 3 3 3 3
2 2 2 3 3 3 4 4 4 4 4 4 4 5 5 5 5 5 5 5 5 5 6 6 5 5 5 5 5 5 5 5 5 4 4 4 4 4 3 3 3 3 2
1 2 2 2 2 3 3 3 3 3 4 4 4 4 4 4 4 4 5 5 5 5 5 5 5 5 5 5 5 5 5 4 4 4 4 4 3 3 3 3 2 2 2
1 1 1 2 2 2 2 3 3 3 3 3 3 3 4 4 4 4 4 4 4 4 4 4 5 5 5 4 4 4 4 4 4 4 3 3 3 3 3 2 2 2 2
0 1 1 1 1 2 2 2 2 3 3 3 3 3 3 3 3 3 3 4 4 4 4 4 4 4 4 4 4 4 4 4 3 3 3 3 3 2 2 2 2 2 1
0 0 1 1 1 1 2 2 2 2 2 2 3 3 3 3 3 3 3 3 3 3 4 4 4 4 4 3 3 3 3 3 3 3 2 2 2 2 2 2 1 1 1
-0 0 0 0 1 1 1 1 1 2 2 2 2 2 2 2 2 2 3 3 3 3 3 3 3 3 3 3 3 3 3 3 2 2 2 2 2 1 1 1 1 1 0
-0 -0 0 0 0 0 1 1 1 1 1 1 2 2 2 2 2 2 2 2 2 3 3 3 3 3 3 3 2 2 2 2 2 2 2 2 1 1 1 1 0 0 0
-1 -1 -0 -0 -0 -0 0 0 0 0 1 1 1 1 1 1 1 1 2 2 2 2 2 2 2 2 2 2 2 2 2 1 1 1 1 1 1 0 0 0 0 -0 -0
-1 -1 -1 -1 -1 -1 -0 -0 -0 -0 0 0 1 1 1 1 1 1 1 1 1 1 1 1 2 2 1 1 1 1 1 1 1 1 1 0 0 0 0 0 -0 -0 -0
-2 -2 -1 -1 -1 -1 -1 -1 -1 -1 -0 -0 0 0 0 0 0 0 0 0 1 1 1 1 1 1 1 1 1 1 1 1 1 0 0 0 -0 -0 -0 -0 -0 -1 -1
-2 -2 -2 -2 -2 -2 -2 -2 -1 -1 -1 -1 -0 -0 -0 -0 -0 -0 -0 -0 0 -0 0 0 0 0 1 1 0 0 0 0 0 -0 -0 -0 -0 -0 -0 -1 -1 -1 -1
-3 -3 -2 -2 -2 -2 -2 -2 -2 -2 -1 -1 -1 -1 -1 -1 -1 -1 -0 -1 -1 -1 -0 -0 -0 0 0 0 -0 -0 -0 -0 -0 -0 -0 -1 -1 -1 -1 -1 -1 -1 -2
Wind_Speed
3 1 2 4 4 4 4 4 5 5 5 4 4 3 3 3 2 3 4 6 6 7 6 4 5 5 4 4 4 4 4 3 2 3 3 3 2 2 2 3 3 4 6
1 1 1 3 4 4 4 4 5 5 5 4 3 2 2 2 2 2 3 5 6 6 6 6 4 4 4 5 4 4 3 2 2 2 2 2 3 3 3 2 2 3 5
4 2 1 2 4 4 5 5 5 5 5 4 4 3 3 2 2 2 2 3 5 6 6 7 6 4 4 5 5 5 5 3 1 2 3 2 1 2 2 2 2 2 2
2 3 2 2 4 4 4 4 4 5 5 5 6 6 4 3 3 3 2 2 4 5 6 7 7 5 3 4 4 4 3 4 3 1 1 2 2 1 2 2 2 3 3
2 3 3 3 3 3 3 4 4 4 4 5 6 6 4 2 2 2 3 2 2 4 5 6 6 5 4 4 4 4 4 3 3 2 2 2 1 1 1 3 3 3 2
1 1 1 0 1 1 2 3 4 3 4 4 5 5 5 5 5 4 4 3 2 2 4 5 5 5 5 4 4 4 4 3 3 2 2 2 2 2 2 2 3 3 3
1 1 1 0 1 1 1 2 3 3 3 4 4 4 5 6 7 5 5 4 3 2 4 4 4 4 5 5 5 4 4 4 4 3 2 2 2 2 2 2 2 3 3
1 1 1 1 2 1 2 2 3 2 3 3 3 3 4 4 3 4 4 4 4 3 4 5 5 5 5 5 5 3 3 3 4 3 3 2 1 2 2 2 1 2 2
1 1 1 1 1 2 2 3 3 2 2 3 3 3 4 3 4 4 3 3 3 3 4 5 5 5 5 5 5 3 3 4 3 3 3 2 1 1 1 2 3 2 2
1 1 1 1 1 1 1 1 2 2 1 2 3 3 3 3 3 3 4 4 3 3 5 5 5 5 4 5 4 3 3 4 3 2 3 2 1 1 1 2 1 2 2
2 2 1 1 0 1 1 1 1 1 0 1 2 2 2 3 3 3 3 3 3 4 5 5 5 5 5 4 4 4 4 4 3 2 3 2 1 1 1 1 1 1 1
1 1 0 1 1 1 1 1 1 0 1 1 1 2 2 3 3 3 3 3 3 3 4 5 5 5 5 5 5 5 5 5 4 3 3 2 2 1 1 1 1 1 2
2 1 1 1 1 1 0 0 0 0 0 0 1 1 2 3 3 3 3 3 3 3 3 4 5 5 5 4 4 5 5 5 4 4 4 3 3 1 1 1 1 2 2
2 1 1 1 1 1 0 1 1 1 1 1 1 1 1 2 2 2 3 3 3 3 4 4 4 5 4 4 4 4 4 4 3 3 3 3 3 3 2 2 2 1 1
3 2 1 2 2 2 2 2 2 2 1 1 1 1 1 1 2 2 2 2 3 3 3 3 3 4 4 4 4 4 4 3 3 2 2 3 3 3 2 2 2 1 1
3 3 3 3 2 2 2 2 2 2 1 0 0 0 1 1 2 2 2 2 2 2 2 2 3 3 3 5 6 4 4 3 3 2 2 2 2 2 2 3 3 2 2
3 3 3 3 3 3 2 2 2 1 1 0 0 1 1 1 1 2 3 3 2 2 2 2 2 3 3 4 5 5 4 4 3 3 2 1 1 1 1 2 3 3 5
4 3 3 4 4 3 3 2 2 1 1 1 1 1 1 1 1 2 2 2 2 2 2 2 2 2 2 4 4 4 3 3 2 3 3 2 2 2 1 1 1 2 3
3 3 2 3 3 3 3 2 2 1 1 1 1 0 0 1 1 2 2 1 1 1 1 1 2 2 2 3 4 4 3 2 1 1 2 2 2 3 2 0 1 2 3
2 2 2 2 2 3 2 2 2 1 1 1 1 1 0 1 1 1 1 1 1 2 2 1 1 2 2 3 4 4 2 2 1 1 1 2 2 3 2 1 1 3 3
3 3 3 2 2 3 2 2 2 3 2 2 1 1 0 0 1 1 1 1 1 2 2 1 1 1 2 3 4 4 2 3 2 1 1 1 2 2 2 2 2 3 3
4 3 3 3 3 3 2 2 3 3 3 2 1 1 1 1 1 1 1 1 2 2 1 1 1 1 1 1 3 3 2 2 2 2 1 1 2 2 2 2 2 2 2
3 3 2 3 3 3 2 2 3 3 2 2 2 1 1 1 1 1 1 1 1 1 1 1 1 0 0 0 1 2 2 2 1 1 1 1 1 2 2 2 2 2 1
3 3 2 3 3 3 3 2 3 3 2 2 2 1 1 1 1 1 1 1 1 1 1 1 1 1 0 0 1 1 1 1 1 1 1 1 2 3 3 2 2 2 1
2 2 2 2 3 3 3 3 3 2 2 1 1 1 1 1 1 1 0 1 1 2 2 2 2 2 2 2 2 1 1 1 2 2 2 2 1 2 2 2 2 2 2
2 2 2 2 3 3 3 3 3 2 1 1 1 1 1 1 1 1 2 3 1 1 1 0 1 1 1 2 2 1 1 2 3 2 2 1 0 0 1 1 2 2 2
Wind_Direction
259 173 143 145 132 136 146 151 150 153 144 141 148 149 158 158 153 149 150 153 153 150 142 136 142 141 141 141 134 120 102 79 77 77 38 14 22 37 36 27 30 27 26
271 168 89 145 151 157 160 160 164 161 159 160 161 154 143 141 145 144 146 159 156 156 152 145 151 152 144 138 140 130 122 91 60 99 94 15 355 7 21 12 26 18 18
215 200 187 176 159 168 175 177 178 169 161 149 126 106 92 88 118 152 168 167 161 162 158 153 147 149 155 159 158 152 140 141 67 69 125 130 237 311 335 359 7 2 5
206 196 205 202 184 186 179 177 175 167 162 153 155 157 166 179 193 179 173 155 158 160 159 153 150 149 152 161 164 155 148 145 150 100 66 114 153 160 314 323 338 348 343
205 200 209 216 193 178 167 174 164 162 165 169 171 170 170 171 152 149 154 153 146 156 158 156 152 151 152 157 156 150 150 148 156 153 133 97 79 115 177 278 309 327 314
219 209 201 171 134 121 136 153 155 163 169 173 175 175 172 164 159 164 169 168 160 157 159 155 153 152 150 157 161 153 153 151 147 144 147 157 160 178 182 232 278 299 301
194 157 83 113 124 123 152 162 164 171 175 175 180 184 181 175 180 181 180 178 178 188 182 162 159 158 155 152 153 150 155 153 154 159 165 165 174 169 175 195 260 290 299
180 168 216 201 176 181 193 182 182 190 182 183 189 182 175 177 184 183 179 187 192 193 172 164 161 156 153 149 147 150 153 151 158 162 162 161 176 172 179 184 202 300 303
210 200 212 204 179 193 205 204 190 194 196 192 186 180 178 181 183 173 168 174 168 167 162 163 158 155 154 151 148 153 156 155 163 168 168 167 179 175 189 189 191 200 285
237 262 232 216 196 204 204 186 183 189 202 190 190 192 192 187 176 164 169 174 170 161 162 167 163 158 156 154 149 150 160 159 166 165 162 170 190 184 189 191 202 206 222
232 238 252 234 184 110 141 171 169 111 106 195 193 180 184 173 160 166 176 177 169 163 170 172 168 165 167 164 158 164 167 168 171 168 173 186 190 188 196 192 205 231 229
257 244 215 80 69 88 113 159 172 162 208 198 189 183 169 158 158 167 171 168 170 173 174 169 170 170 170 169 170 174 176 178 179 180 176 188 182 186 185 197 234 259 255
17 39 66 72 51 56 59 352 250 267 309 128 141 156 161 162 170 173 167 166 167 167 164 162 169 170 170 173 175 174 178 183 182 181 185 192 179 197 217 227 243 269 285
27 33 33 17 356 354 2 353 354 360 8 79 135 172 185 180 175 163 161 166 165 165 167 168 172 168 168 173 170 164 168 174 178 182 188 191 193 205 214 232 236 258 300
6 3 354 344 348 358 4 4 356 355 7 78 158 197 181 162 148 148 155 153 156 162 160 155 162 160 165 175 174 170 167 165 167 173 187 200 208 220 230 249 243 245 281
337 340 347 346 337 340 340 344 335 336 7 48 219 101 106 131 147 153 150 145 144 138 132 152 166 166 178 182 179 169 163 165 169 180 201 217 211 229 262 277 280 275 276
323 325 324 316 320 318 317 318 313 326 359 28 50 90 128 148 164 157 146 153 154 142 144 164 166 167 180 180 178 169 153 164 177 182 190 228 232 245 228 289 308 301 301
323 327 329 333 334 332 338 338 340 357 27 44 39 60 102 157 150 146 146 146 144 154 162 169 170 163 183 175 169 157 143 157 176 185 189 197 211 238 245 309 320 308 305
317 320 326 330 333 340 343 350 1 10 34 14 345 345 131 166 159 155 153 139 142 155 162 167 169 170 179 172 162 148 139 150 173 190 188 188 204 249 287 319 302 316 320
346 344 352 360 355 348 357 12 4 5 351 328 309 306 251 195 191 172 150 126 150 162 152 143 174 173 174 175 159 145 141 148 163 190 205 219 234 252 280 254 245 287 306
352 2 7 359 349 352 14 17 4 340 328 338 351 354 351 223 167 132 116 127 122 123 127 122 105 136 158 174 168 159 152 162 164 186 235 252 264 270 284 293 265 282 309
357 5 7 353 353 3 19 13 351 335 344 3 13 5 14 44 83 112 93 111 123 131 137 118 75 69 126 162 178 172 161 153 165 199 220 247 270 299 315 329 319 332 352
347 354 5 356 359 4 12 356 335 340 356 15 19 16 27 46 80 120 128 111 122 138 162 168 179 155 43 209 180 180 170 159 153 184 212 267 311 359 1 359 3 8 8
343 351 7 2 353 356 358 346 338 346 6 18 9 19 41 47 54 86 134 153 172 181 187 194 192 184 184 184 189 185 178 152 118 112 124 82 60 34 15 14 15 1 330
336 348 356 341 333 346 356 353 350 360 13 12 7 25 44 69 64 47 19 235 232 224 216 211 193 188 208 223 205 180 180 173 162 118 95 77 57 38 24 12 8 0 355
327 338 343 334 329 341 347 347 350 360 22 12 7 26 52 66 73 61 20 10 356 315 274 239 200 239 233 214 194 178 165 153 142 109 122 105 52 12 350 344 345 345 338
Height
1467 1468 1470 1472 1474 1476 1478 1480 1482 1484 1486 1488 1491 1493 1496 1498 1500 1503 1505 1507 1509 1510 1512 1513 1514 1516 1517 1518 1519 1520 1520 1521 1521 1522 1523 1523 1524 1524 1524 1524 1524 1524 1523
1465 1466 1467 1470 1471 1474 1476 1478 1480 1482 1484 1487 1489 1491 1494 1496 1498 1500 1503 1505 1506 1508 1509 1511 1512 1513 1515 1516 1517 1517 1518 1519 1520 1520 1520 1521 1523 1522 1522 1523 1522 1522 1521
1463 1464 1466 1467 1469 1471 1473 1475 1478 1480 1482 1484 1487 1489 1491 1493 1496 1498 1500 1502 1504 1506 1507 1509 1510 1511 1512 1513 1514 1515 1516 1517 1518 1519 1520 1520 1519 1520 1520 1520 1521 1520 1519
1461 1462 1463 1465 1467 1469 1471 1473 1476 1477 1480 1482 1484 1486 1488 1490 1493 1495 1497 1499 1501 1503 1505 1506 1507 1508 1510 1511 1512 1513 1514 1515 1516 1517 1517 1518 1518 1519 1518 1518 1518 1518 1517
1459 1460 1462 1463 1465 1467 1469 1471 1473 1475 1477 1479 1481 1483 1486 1488 1491 1493 1495 1496 1498 1500 1502 1504 1505 1506 1508 1509 1510 1511 1512 1513 1514 1514 1515 1515 1516 1516 1516 1515 1515 1514 1514
1458 1459 1461 1462 1463 1465 1466 1469 1470 1472 1474 1476 1478 1480 1483 1485 1488 1490 1491 1493 1495 1498 1500 1501 1503 1504 1505 1507 1508 1509 1510 1511 1512 1513 1513 1514 1514 1514 1514 1512 1511 1510 1510
1456 1456 1458 1459 1460 1462 1464 1466 1468 1470 1471 1473 1475 1477 1480 1482 1485 1487 1488 1491 1493 1494 1496 1498 1500 1502 1503 1504 1506 1507 1508 1508 1509 1510 1511 1512 1512 1512 1512 1511 1509 1507 1506
1455 1455 1457 1458 1459 1460 1462 1464 1465 1467 1469 1470 1473 1475 1477 1480 1482 1484 1486 1488 1490 1492 1493 1496 1498 1499 1500 1501 1503 1504 1505 1506 1507 1508 1509 1509 1510 1510 1510 1509 1508 1505 1503
1454 1454 1456 1457 1458 1459 1460 1462 1463 1465 1466 1468 1470 1472 1475 1477 1479 1482 1484 1486 1487 1489 1491 1493 1495 1496 1498 1499 1500 1501 1502 1503 1504 1505 1506 1506 1507 1507 1507 1507 1506 1505 1502
1452 1453 1454 1455 1456 1458 1459 1461 1462 1463 1464 1466 1468 1470 1472 1474 1477 1479 1481 1483 1484 1486 1488 1490 1492 1493 1495 1496 1497 1498 1499 1500 1501 1503 1503 1504 1504 1504 1505 1504 1504 1503 1501
1451 1452 1453 1454 1455 1456 1457 1459 1460 1461 1462 1464 1466 1468 1470 1471 1473 1475 1478 1480 1482 1484 1485 1487 1489 1490 1492 1493 1494 1496 1497 1498 1499 1500 1501 1501 1501 1501 1501 1501 1501 1500 1498
1450 1451 1452 1453 1454 1454 1455 1456 1457 1459 1460 1462 1463 1465 1467 1469 1470 1473 1475 1477 1479 1481 1483 1484 1485 1487 1489 1490 1491 1493 1494 1495 1496 1497 1498 1498 1498 1498 1498 1498 1497 1496 1495
1449 1450 1451 1451 1452 1452 1453 1454 1455 1456 1458 1459 1461 1462 1464 1466 1467 1470 1472 1474 1476 1478 1480 1481 1483 1484 1486 1487 1489 1490 1491 1492 1493 1494 1495 1495 1495 1495 1495 1494 1493 1493 1492
1449 1449 1449 1450 1451 1451 1452 1453 1454 1455 1456 1457 1458 1460 1461 1463 1465 1467 1469 1472 1474 1475 1477 1478 1480 1482 1483 1485 1486 1487 1488 1490 1490 1491 1492 1492 1492 1492 1491 1491 1490 1489 1488
1449 1449 1449 1449 1450 1450 1450 1451 1452 1453 1454 1455 1456 1458 1460 1461 1463 1465 1467 1469 1471 1473 1474 1476 1477 1479 1481 1482 1483 1484 1486 1487 1487 1488 1489 1489 1489 1488 1488 1488 1487 1486 1484
1449 1449 1449 1449 1449 1449 1449 1450 1450 1451 1452 1453 1455 1456 1458 1459 1461 1462 1464 1466 1468 1470 1471 1473 1475 1476 1478 1480 1481 1482 1483 1484 1484 1485 1485 1486 1485 1485 1485 1485 1484 1483 1482
1449 1449 1448 1448 1448 1449 1449 1449 1449 1450 1450 1452 1453 1454 1456 1457 1459 1460 1462 1464 1465 1467 1469 1471 1472 1474 1475 1477 1478 1479 1480 1481 1481 1482 1482 1482 1482 1482 1482 1481 1480 1480 1479
1449 1448 1448 1448 1448 1448 1448 1448 1449 1449 1449 1451 1451 1453 1454 1455 1456 1458 1460 1461 1463 1465 1467 1468 1469 1471 1473 1474 1475 1476 1477 1477 1478 1479 1479 1479 1479 1479 1478 1477 1477 1476 1475
1449 1448 1448 1448 1448 1447 1447 1447 1448 1448 1448 1449 1450 1451 1452 1453 1454 1456 1457 1459 1461 1462 1464 1465 1467 1468 1469 1471 1472 1473 1473 1474 1475 1475 1476 1476 1476 1476 1475 1474 1473 1472 1471
1448 1448 1447 1447 1447 1447 1446 1446 1446 1447 1447 1448 1449 1450 1451 1452 1453 1454 1455 1457 1458 1460 1461 1462 1464 1465 1466 1468 1469 1470 1470 1471 1472 1472 1472 1473 1473 1472 1472 1471 1470 1469 1468
1447 1447 1446 1446 1446 1446 1445 1445 1445 1445 1446 1447 1448 1449 1450 1450 1451 1452 1453 1455 1456 1457 1458 1460 1461 1462 1463 1465 1466 1467 1467 1468 1468 1469 1469 1470 1470 1469 1469 1469 1468 1467 1465
1447 1446 1445 1445 1445 1444 1444 1444 1444 1444 1445 1446 1447 1447 1448 1449 1450 1451 1452 1453 1453 1455 1456 1457 1458 1459 1460 1462 1463 1464 1465 1465 1466 1466 1467 1467 1467 1467 1466 1466 1465 1464 1463
1446 1445 1444 1444 1444 1444 1443 1443 1443 1444 1444 1444 1445 1446 1447 1447 1448 1449 1450 1450 1451 1452 1453 1454 1455 1456 1458 1459 1460 1461 1462 1462 1463 1463 1464 1464 1464 1464 1463 1463 1462 1461 1460
1445 1444 1443 1442 1442 1443 1443 1443 1443 1443 1443 1443 1444 1444 1445 1446 1447 1447 1448 1449 1449 1450 1450 1451 1452 1453 1455 1456 1457 1458 1459 1459 1460 1461 1461 1461 1461 1461 1461 1460 1459 1459 1458
1443 1443 1442 1442 1442 1442 1442 1442 1442 1442 1442 1442 1442 1443 1444 1444 1445 1446 1447 1447 1448 1448 1449 1449 1450 1451 1452 1454 1455 1455 1456 1457 1457 1458 1458 1458 1458 1458 1458 1457 1457 1456 1455
1442 1442 1442 1441 1441 1441 1441 1441 1441 1441 1441 1441 1441 1442 1442 1443 1443 1444 1444 1445 1446 1446 1447 1448 1449 1449 1451 1451 1452 1453 1454 1454 1455 1456 1456 1456 1456 1455 1455 1455 1454 1454 1453